Карточка аэропорта UNKL

Внимание!
Информация на этой странице в стадии наполнения.
Если вы не увидели какой-то информации, или заметили неточность - пожалуйста сообщите нам!
Спасибо!
Команда RU-STAFF
Название аэропортаЕмельяново
Название аэропорта (англ.)Yemelyanovo
Превышение942 ft. (287.1 m.)
Координаты56°10.386', 92°29.598'
Высота перехода1200m
Эшелон переходаQFE>=729mm: FL060; QFE<729mm: FL070
Коды ответчика5320-5377
Зона ОрВДКрасноярск РПИ (UNKL)
Данные METARUNKL 010700Z 28007MPS 5000 -SN BKN020 M16/M20 Q1031 R29/420150 NOSIG RMK QFE747
Проноз погоды (TAF)UNKL 010510Z 0105/0206 28007G14MPS 4000 -SHSN BKN016CB TEMPO 0105/0109 0400 +SHSN BLSN VV003 BECMG 0109/0111 6000 -SHSN BECMG 0111/0113 27002G07MPS
NOTAMshow/hide NOTAM
AWOS   TABLE

Информация о ВПП

ВПП Длина ВПП (м.) Покрытие Курс ВПП Частота ILS
113700Асфальтобетон109110.5
293700Асфальтобетон289111.7

Диспетчерские позиции

Позывной Наименование органа УВД Частота
UNKL_R_APPКрасноярск-Круг122.0
UNKL_APPКрасноярск-Подход127.7
UNKL_GNDКрасноярск-Руление121.9
UNKL_TWRКрасноярск-Старт/Посадка118.3



Спутниковое изображение